TimeCDT,TemperatureF,Dew PointF,Humidity,Sea Level PressureIn,VisibilityMPH,Wind Direction,Wind SpeedMPH,Gust SpeedMPH,PrecipitationIn,Events,Conditions,WindDirDegrees,DateUTC
12:52 AM,57.9,48.9,72,30.02,10.0,South,10.4,-,N/A,,Partly Cloudy,180,2012-10-04 05:52:00
1:52 AM,57.0,50.0,77,30.02,10.0,South,9.2,-,N/A,,Clear,190,2012-10-04 06:52:00
2:52 AM,57.9,51.1,78,30.00,10.0,South,9.2,-,N/A,,Clear,190,2012-10-04 07:52:00
3:52 AM,55.9,51.1,84,30.00,10.0,South,9.2,-,N/A,,Clear,190,2012-10-04 08:52:00
4:52 AM,55.9,51.1,84,30.00,10.0,South,9.2,-,N/A,,Clear,190,2012-10-04 09:52:00
5:52 AM,55.0,51.1,86,30.01,10.0,South,9.2,-,N/A,,Clear,180,2012-10-04 10:52:00
6:52 AM,57.0,52.0,83,30.01,10.0,South,9.2,-,N/A,,Mostly Cloudy,180,2012-10-04 11:52:00
7:52 AM,57.9,52.0,81,30.01,10.0,SSW,10.4,-,N/A,,Partly Cloudy,210,2012-10-04 12:52:00
8:52 AM,63.0,53.1,70,30.01,10.0,SW,16.1,-,N/A,,Clear,230,2012-10-04 13:52:00
9:52 AM,64.9,51.1,61,30.01,10.0,WSW,11.5,-,N/A,,Clear,240,2012-10-04 14:52:00
10:52 AM,62.1,46.0,56,30.03,10.0,WNW,12.7,-,N/A,,Clear,290,2012-10-04 15:52:00
11:50 AM,57.2,42.8,59,30.09,9.0,West,17.3,26.5,N/A,Thunderstorm,Scattered Clouds,260,2012-10-04 16:50:00
11:52 AM,57.0,42.1,57,30.09,9.0,West,17.3,26.5,N/A,Thunderstorm,Scattered Clouds,260,2012-10-04 16:52:00
12:01 PM,53.6,46.4,77,30.08,1.8,West,15.0,-,0.06,Rain-Thunderstorm,Heavy Thunderstorms and Rain,280,2012-10-04 17:01:00
12:09 PM,53.6,46.4,77,30.09,3.0,WNW,19.6,-,0.06,Rain-Thunderstorm,Light Thunderstorms and Rain,290,2012-10-04 17:09:00
12:28 PM,51.8,44.6,76,30.10,10.0,WNW,15.0,-,0.06,,Scattered Clouds,290,2012-10-04 17:28:00
12:52 PM,52.0,46.0,80,30.12,10.0,West,12.7,-,0.06,,Mostly Cloudy,280,2012-10-04 17:52:00
1:52 PM,53.1,45.0,74,30.12,10.0,WSW,17.3,-,N/A,,Mostly Cloudy,250,2012-10-04 18:52:00
2:52 PM,54.0,44.1,69,30.11,10.0,West,16.1,23.0,N/A,,Partly Cloudy,280,2012-10-04 19:52:00
3:52 PM,53.1,41.0,64,30.13,10.0,WNW,16.1,-,N/A,,Scattered Clouds,290,2012-10-04 20:52:00
4:52 PM,53.1,43.0,69,30.15,10.0,West,11.5,-,0.01,,Mostly Cloudy,260,2012-10-04 21:52:00
5:52 PM,52.0,42.1,69,30.15,10.0,WSW,10.4,-,N/A,,Overcast,250,2012-10-04 22:52:00
6:52 PM,51.1,42.1,71,30.14,10.0,WSW,9.2,-,N/A,,Overcast,240,2012-10-04 23:52:00
8:52 PM,44.1,42.1,93,30.17,8.0,West,6.9,-,N/A,,Clear,260,2012-10-05 01:52:00
9:52 PM,41.0,37.9,89,30.18,10.0,West,8.1,-,N/A,,Clear,280,2012-10-05 02:52:00
10:52 PM,39.0,35.1,86,30.19,10.0,West,6.9,-,N/A,,Clear,280,2012-10-05 03:52:00
11:52 PM,41.0,35.1,79,30.18,10.0,NW,5.8,-,N/A,,Clear,320,2012-10-05 04:52:00